loading
|
Showing default

OPS 7034 (TRANSIT 18), 3133

Orbit data source: Space-Track

OPS 7034 (TRANSIT 18), 3133 is a payload satellite owned by USN NAVAIR (US) in LEO that was launched on Sat, 02 Mar 1968 UTC via an SCOUT A launch vehicle from the Air Force Western Test Range (AFWTR). Payloads include a variety of satellites, spacecraft, and rockets equipped with specific instruments for various scientific and technological missions. These include communications satellites like Starlink; space stations such as the ISS; scientific satellites like the Hubble; Earth observation satellites from companies like Planet Labs, Umbra, and HawkEye 360; GPS; miniature CubeSats for education and research; and military/defense satellites.

Loading next visibility...
Loading greatness...
OPS 7034 (TRANSIT 18) details
Identifier
3133, 1968-012A
Orbit
LEO
Last TLE update9 hours ago
Origin
Flag of USUSN NAVAIR (US)
ManufacturerRCA/East Windsor
MissionDefense Navigation
Bus & MotorTRANSIT 5, Unknown motor
Mass60 kg wet, 60 kg dry
Launch date (UTC)
1968-03-02 (57 years ago)
Launch vehicle
SCOUT A
Launch site
Air Force Western Test Range (AFWTR)
Object type
Payload
Rocket body
Debris
Shape & HBROct Cyl + 4 Pan + 1 Rod, Unknown HBR
Radar Cross Section7.565 m², Large (>1 m²)

Expand to show TLE details & history

TLE from 9 hours ago
0 OPS 7034 (TRANSIT 18)
1 03133U 68012A   24284.56995590  .00000448  00000-0  66521-3 0  9994
2 03133  90.0160 272.6649 0073315 332.4343 149.0143 13.51415022511356
Epoch: 2024-10-10T13:40Z
Definitive object data (Epoch: 2024-10-10T13:40:44.189Z)
Latitude58.21339°
Longitude-132.14615°
Altitude1,123.865 km
Speed7.273 km/s
True Right ascension06h 10m 45s
True Declination58° 04' 00"
Sunlit
Object was in daylight at TLE epoch
Predictive object data (real-time)
Latitude-1.72832°
Longitude-132.17169°
Altitude1,117.298 km
Speed7.271 km/s
Apparent Right ascension05h 47m 16s
Apparent Declination-19° 15' 46"
Sunlit
Object is in daylight
Predictive observer data (real-time)
Local Sidereal Time17:11:25
Azimuth336.929° NNW
Elevation-67.955°
Doppler factor1
Orbital elements
Apogee1,118.667 km
Perigee1,009.542 km
Semi-major axis7,442.241 km
Eccentricity0.0073315
Inclination90.016°
RAAN272.6649°
Arg. of periapsis332.4343°
True anomaly149.44344°
Mean anomaly149.0143°
Eccentric anomaly149.22921°
Mean motion3.38055 °/min
BSTAR0.00066521
Period106.49 mins
No data available

OPS 7034 (TRANSIT 18) Visibility forecast

Observer location: 39.9160978°, -105.1181434

OPS 7034 (TRANSIT 18) is not visible in the next 10 days
Span
Click to sort rows by Start time (UTC) header in descending order
Start Az.
Max El. time (UTC)
Max El. Az.
Max El.
End time (UTC)
End Az.